sat.trackr.live / text

‹ back to catalog

STARLINK-32045

NORAD 60106 · 2024-117R

PAYLOAD ACTIVE UNKNOWN

§ Identity

Operator
Country
US
Launch date
2024-06-23
Launch site
AFETR
Launch vehicle
Mass (kg)
RCS (m²)

Purposes: comms

External: N2YO · Heavens-Above · Gunter

§ Orbital elements

Epoch: 2026-05-24T23:12:48.199392Z

Period
94.11 min
Inclination
53.1621°
Eccentricity
0.0001261
Mean motion
15.30190085 rev/d
Perigee alt
474.4 km
Apogee alt
476.1 km
Semi-major
6,853.4 km
B*
-2.5546e-6
RAAN
42.9122°
Arg perigee
90.5291°
Mean anomaly
269.5855°
Rev number
10,856

§ Raw data

STARLINK-320451 60106U 24117R   26144.96722453 -.00000435  00000+0 -25546-5 0  99932 60106  53.1621  42.9122 0001261  90.5291 269.5855 15.30190085108561

JSON: /api/v1/satellites/60106 · /tle

For live sub-satellite position, see the globe view (requires WebGL).

§ Visibility from observer

Set your observer location to see the next 7 days of passes ≥ 10°. The values pass through the URL so the page stays shareable.

No JS? Fill the form by hand. The geolocation button needs JavaScript.